Regional Weather Roundup
Issued by NWS Cleveland, OH

Home | Current Version | Previous Version | Text Only | Print | Product List | Glossary Off
Versions: 1 2 3 4 5 6 7 8 9 10 11 12 13 14 15 16 17 18 19 20 21 22 23 24 25 26 27 28 29 30 31 32 33 34 35 36 37 38 39 40 41 42 43 44 45 46 47 48 49 50

000
ASUS41 KCLE 041902
RWRCLE
OHIO REGIONAL WEATHER ROUNDUP
NATIONAL WEATHER SERVICE CLEVELAND, OH
200 PM EST WED MAR 04 2015

NOTE: "FAIR" INDICATES FEW OR NO CLOUDS BELOW 12,000 FEET WITH NO
SIGNIFICANT WEATHER AND/OR OBSTRUCTIONS TO VISIBILITY.

OHZ001>008-015>018-024>027-034-035-043-044-042000-
   NORTHWEST OHIO

CITY           SKY/WX    TMP DP  RH WIND       PRES   REMARKS
DEFIANCE       CLOUDY    32  20  61 W15       30.01R WCI  22
FINDLAY        CLOUDY    33  26  75 W15       29.98F WCI  23
TOLEDO EXPRESS CLOUDY    33  22  63 W17       29.98R WCI  22
TOLEDO EXEC    CLOUDY    34  22  61 W14       29.99R WCI  25
LIMA           CLOUDY    33  25  72 W9        29.99S HAZE    WCI  25
$$

OHZ009>014-019>023-028>033-038-089-042000-
   NORTHEAST OHIO

CITY           SKY/WX    TMP DP  RH WIND       PRES   REMARKS
CLE-HOPKINS    CLOUDY    34  23  64 W10       29.97F WCI  26
CLE-LAKEFRONT  CLOUDY    33  25  72 W9        29.94F WCI  25
CUY CO. ARPT   CLOUDY    36  23  60 W14       29.94F
LORAIN-ELYRIA  CLOUDY    33  23  66 W8        29.95F WCI  26
ASHTABULA      CLOUDY    33  22  63 W10       29.92S WCI  25
AKRON-CANTON   CLOUDY    34  27  75 W9        29.93S WCI  27
WOOSTER        CLOUDY    33  27  78 W5        29.93F WCI  29
MANSFIELD      CLOUDY    33  25  72 W8        29.94F WCI  26
YOUNGSTOWN     CLOUDY    33  26  75 W9        29.92R WCI  25
$$

OHZ042-051>053-060>062-070>072-077>081-042000-
  SOUTHWEST OHIO

CITY           SKY/WX    TMP DP  RH WIND       PRES   REMARKS
CINC-COVINGTON CLOUDY    36  31  82 NW10      30.00S
CINC-LUNKEN    CLOUDY    37  30  75 NW10      30.02S
HAMILTON       CLOUDY    36  30  79 NW9       30.03S
DAYTON         CLOUDY    34  27  75 NW7       30.02R WCI  28
WRIGHT-PAT AFB NOT AVBL
DAYTON GENERAL CLOUDY    35  29  78 NW8       30.00S WCI  29
WILMINGTON     CLOUDY    34  29  82 NW8       29.98S HAZE    WCI  27
$$

OHZ036-037-039>041-045>050-054>059-063>069-073>076-082>088-042000-
  CENTRAL AND SOUTHEAST OHIO

CITY           SKY/WX    TMP DP  RH WIND       PRES   REMARKS
COLUMBUS       CLOUDY    35  29  78 NW9       29.97F WCI  28
OSU AIRPORT    CLOUDY    34  29  82 NW9       29.97F HAZE    WCI  27
BOLTON FIELD   CLOUDY    34  30  86 NW7       29.98F FOG     WCI  28
RICKENBACK AFB CLOUDY    35  30  82 NW10      29.97F WCI  27
NEWARK         CLOUDY    36  29  75 NW8       29.95F
MARION         CLOUDY    33  24  69 W10       29.98S HAZE    WCI  25
LANCASTER      CLOUDY    36  31  82 NW6       29.96F HAZE
ZANESVILLE     CLOUDY    35  30  82 NW7       29.94F HAZE    WCI  29
NEW PHILLY     CLOUDY    37  29  72 W7        29.95F HAZE
$$



USA.gov is the U.S. government's official web portal to all federal, state and local government web resources and services.